Weather History for Flint, MI

Change the Weather History Date:

Sunday, March 9, 2014

  Actual Average Record
Temperature  
Mean Temperature 22 °F 31 °F  
Max Temperature 37 °F 40 °F 67 °F (2000)
Min Temperature 7 °F 22 °F -5 °F (1978)
Degree Days  
Heating Degree Days 43 34  
Month to date heating degree days 444 315  
Since 1 July heating degree days 5965 5403  
Cooling Degree Days 0 0  
Month to date cooling degree days 0 0  
Year to date cooling degree days 0 0  
Moisture  
Dew Point 16 °F    
Average Humidity 68    
Maximum Humidity 84    
Minimum Humidity 52    
Precipitation  
Precipitation 0.00 in 0.06 in 0.87 in (1998)
Month to date precipitation 0.35 0.51  
Year to date precipitation 4.36 3.62  
Snow  
Snow 0.00 in 0.20 in 1.80 in (1998)
Month to date snowfall 4.1 2.5  
Since 1 July snowfall 77.3 41.1  
Snow Depth 9.00 in    
Sea Level Pressure  
Sea Level Pressure 30.07 in    
Wind  
Wind Speed 11 mph (SW)    
Max Wind Speed 22 mph    
Max Gust Speed 29 mph    
Visibility 10 miles    
Events      
T = Trace of Precipitation, MM = Missing Value Source: NWS Daily Summary

Daily Weather History Graph

Daily Weather History Graph

Search for Another Location

Airport:

Trip Planner

Search our weather history database for the weather conditions in past years. The results will help you decide how hot, cold, wet, or windy it might be!

Date:

Astronomy

Mar. 09, 2014 Rise Set
Actual Time 7:57 AM EDT 7:34 PM EDT
Civil Twilight 7:29 AM EDT 8:02 PM EDT
Nautical Twilight 6:56 AM EDT 8:35 PM EDT
Astronomical Twilight 6:23 AM EDT 9:08 PM EDT
Moon 1:19 PM EDT (3/9) 3:28 AM EDT (3/9)
Length of Visible Light 12h 33m
Length of Day
11h 36m
First Quarter, 61% of the Moon is Illuminated
Mar 9
First Quarter
Mar 16
Full
Mar 23
Last Quarter
Mar 30
New
Apr 7
First Quarter

Hourly Weather History & Observations

Time (EDT) Temp. Windchill Dew Point Humidity Pressure Visibility Wind Dir Wind Speed Gust Speed Precip Events Conditions
12:53 AM 17.1 °F 7.6 °F 12.0 °F 81% 30.19 in 7.0 mi WNW 6.9 mph - N/A   Clear
1:53 AM 17.1 °F 8.7 °F 10.9 °F 77% 30.20 in 10.0 mi WNW 5.8 mph - N/A   Clear
3:53 AM 17.1 °F 10.0 °F 10.0 °F 74% 30.19 in 10.0 mi West 4.6 mph - N/A   Clear
4:53 AM 14.0 °F 3.9 °F 8.1 °F 77% 30.20 in 10.0 mi West 6.9 mph - N/A   Clear
5:53 AM 15.1 °F 7.7 °F 9.0 °F 77% 30.20 in 10.0 mi WSW 4.6 mph - N/A   Clear
6:53 AM 12.0 °F 5.9 °F 7.0 °F 80% 30.22 in 10.0 mi SW 3.5 mph - N/A   Clear
7:53 AM 12.0 °F 5.9 °F 7.0 °F 80% 30.23 in 10.0 mi SSW 3.5 mph - N/A   Clear
8:53 AM 15.1 °F 6.4 °F 10.0 °F 80% 30.23 in 9.0 mi SW 5.8 mph - N/A   Clear
9:53 AM 19.0 °F 10.0 °F 10.9 °F 71% 30.22 in 10.0 mi SW 6.9 mph - N/A   Clear
10:53 AM 23.0 °F 13.1 °F 12.9 °F 65% 30.21 in 10.0 mi SW 9.2 mph - N/A   Clear
11:53 AM 26.1 °F 16.2 °F 17.1 °F 69% 30.18 in 10.0 mi SW 10.4 mph - N/A   Clear
12:53 PM 30.0 °F 21.1 °F 17.1 °F 59% 30.15 in 10.0 mi SW 10.4 mph - N/A   Clear
1:53 PM 32.0 °F 21.6 °F 17.1 °F 54% 30.13 in 10.0 mi WSW 15.0 mph 24.2 mph N/A   Clear
2:53 PM 34.0 °F 24.2 °F 19.0 °F 54% 30.07 in 10.0 mi SW 15.0 mph 25.3 mph N/A   Clear
3:53 PM 35.1 °F 25.2 °F 19.0 °F 52% 30.02 in 10.0 mi SW 16.1 mph - N/A   Clear
4:53 PM 35.1 °F 25.5 °F 19.9 °F 54% 30.00 in 10.0 mi SW 15.0 mph - N/A   Clear
5:53 PM 35.1 °F 24.8 °F 19.0 °F 52% 29.96 in 10.0 mi SW 17.3 mph 24.2 mph N/A   Clear
6:53 PM 34.0 °F 25.0 °F 21.0 °F 59% 29.94 in 9.0 mi SW 12.7 mph 23.0 mph N/A   Clear
7:53 PM 34.0 °F 24.6 °F 21.0 °F 59% 29.91 in 10.0 mi SW 13.8 mph - N/A   Clear
8:53 PM 34.0 °F 23.4 °F 21.0 °F 59% 29.88 in 10.0 mi SW 17.3 mph 24.2 mph N/A   Clear
9:53 PM 34.0 °F 24.2 °F 23.0 °F 64% 29.85 in 10.0 mi SW 15.0 mph 25.3 mph N/A   Clear
10:53 PM 34.0 °F 23.8 °F 24.1 °F 67% 29.84 in 9.0 mi SW 16.1 mph 24.2 mph N/A   Clear
11:53 PM 35.1 °F 24.8 °F 26.1 °F 70% 29.81 in 8.0 mi WSW 17.3 mph - N/A   Scattered Clouds
12:53 AM 37.0 °F 27.7 °F 28.0 °F 70% 29.80 in 8.0 mi WSW 16.1 mph 21.9 mph N/A   Partly Cloudy